User: anonymous   Login
Location: Cincinnati Observatory Center
(39.1389°N, 84.4225°W)
Time: 01:51:00
(UTC-04:00)
Language:

JAS-1B - Orbit

View from above orbital plane
View from above orbital plane
View from above satellite
View from above satellite

Ground track
Ground track

The orbit data is extracted from the following two-line orbital elements,

1 20480U 90013C   18112.80783149 -.00000046  00000-0 -35327-4 0  9996
2 20480  99.0623 193.3831 0540771  50.1571 314.5835 12.83418411321442
Epoch (UTC): 22 April 2018 19:23:16
Eccentricity: 0.0540771
inclination: 99.0623°
perigee height: 911 km
apogee height: 1744 km
right ascension of ascending node: 193.3831°
argument of perigee: 50.1571°
revolutions per day: 12.83418411
mean anomaly at epoch: 314.5835°
orbit number at epoch: 32144

The dashed part of the orbit path shows where the satellite is in the earth's shadow,  

DLR